Flag for U.S.A. Weather past 2 weeks in Fargo, North Dakota, U.S.A.

Now
71 °F

Sunny.


Feels Like: 72 °F
Forecast: 61 / 83 °F
Wind: 12 mph from South

Location: Hector International Airport

Current Time: Aug 28, 2015 at 10:15:41 AM

Latest Report: Aug 28, 2015 at 9:53 AM


Visibility: 10 mi

Pressure: 29.91 "Hg

Humidity: 78%

Dew point: 64 °F

Location of FargoLocation

Historic Weather in Fargo — Graph

°F

Fargo temperature yesterday

Maximum temperature yesterday: 79 °F (at 4:53 PM)
Minimum temperature yesterday: 58 °F (at 6:53 AM)
Average temperature yesterday: 69 °F

Past Weeks' High & Low Weather Summary

 TemperatureHumidityPressure
High95 °F (Aug 14, 2:53 PM)94% (Aug 28, 6:53 AM)30.21 "Hg (Aug 28, 6:53 AM)
Low43 °F (Aug 25, 6:53 AM)33% (Aug 20, 2:53 PM)29.42 "Hg (Aug 22, 2:53 PM)
Average67 °F70%29.91 "Hg
* Reported Aug 13 8:53 AM — Aug 28 8:53 AM, Fargo, Weather by CustomWeather, © 2015

Note: Actual official high and low records may vary slightly from our data, if they occured in-between our weather recording intervals... More about our weather records

Advertising

Fargo weather history for previous 24 hours

 ConditionsComfort  
Time TempWeatherWind HumidityBarometerVisibility
8:53 AM
Fri, Aug 28
67 °FSunny.14 mph87%29.90 "Hg10 mi
8:04 AM65 °FPassing clouds.10 mph91%29.92 "Hg9 mi
7:53 AM65 °FSunny.10 mph91%29.92 "Hg9 mi
6:53 AM65 °FFog.9 mph94%29.89 "Hg4 mi
5:53 AM66 °FFog.8 mph93%29.89 "Hg5 mi
4:53 AM66 °FClear.6 mph90%29.89 "Hg10 mi
3:53 AM67 °FClear.9 mph90%29.89 "Hg10 mi
2:53 AM68 °FClear.9 mph87%29.88 "Hg10 mi
1:53 AM68 °FClear.9 mph87%29.88 "Hg10 mi
12:53 AM69 °FClear.9 mph87%29.88 "Hg10 mi
11:53 PM
Thu, Aug 27
70 °FClear.7 mph84%29.88 "Hg10 mi
10:53 PM71 °FClear.9 mph81%29.90 "Hg10 mi
9:53 PM71 °FClear.7 mph84%29.90 "Hg10 mi
8:53 PM70 °FSunny.5 mph84%29.90 "Hg10 mi
7:53 PM75 °FSunny.3 mph74%29.90 "Hg10 mi
6:53 PM78 °FSunny.5 mph64%29.90 "Hg10 mi
5:53 PM79 °FSunny.7 mph62%29.91 "Hg10 mi
4:53 PM79 °FSunny.3 mph62%29.92 "Hg10 mi
3:53 PM78 °FSunny.3 mph62%29.92 "Hg10 mi
2:53 PM78 °FSunny.6 mph60%29.93 "Hg10 mi
1:53 PM77 °FSunny.5 mph62%29.94 "Hg10 mi
12:53 PM76 °FSunny.7 mph62%29.96 "Hg10 mi
11:53 AM73 °FSunny.6 mph69%29.95 "Hg10 mi
10:53 AM71 °FSunny.7 mph68%29.96 "Hg10 mi
Weather by CustomWeather, © 2015

See weather overviewHow to use our weather pages